Location: Im Fang
(46.6019°N, 7.2397°E)
Time: 17:19:00
(UTC+00:00)

Envisat - Pass Details

Date: 07 March 2021
Orbit: 764 x 766 km, 98.1° (Epoch: 17 April)

Event Time Altitude Azimuth Distance (km) Brightness Sun altitude
Rises 04:09:54 0° 25° (NNE) 3,244 6.8 -19.5°
Reaches altitude 10° 04:12:43 10° 41° (NE) 2,312 6.2 -19.0°
Maximum altitude 04:16:40 22° 92° (E) 1,615 5.5 -18.4°
Drops below altitude 10° 04:20:35 10° 143° (SE) 2,297 5.8 -17.7°
Sets 04:23:22 0° 158° (SSE) 3,217 6.4 -17.2°
